Regional Weather Roundup
Issued by NWS Sterling, VA

Current Version | Previous Version | Text Only | Print | Product List | Glossary On
Versions: 1 2 3 4 5 6 7 8 9 10 11 12 13 14 15 16 17 18 19 20 21 22 23 24 25 26 27 28 29 30 31 32 33 34 35 36 37 38 39 40 41 42 43 44 45 46 47 48 49 50
498
ASUS41 KLWX 291810
RWRLWX

REGIONAL WEATHER ROUNDUP
NATIONAL WEATHER SERVICE BALTIMORE MD/WASHINGTON DC
200 PM EDT MON AUG 29 2016

Note: "FAIR" indicates few or no clouds below 12,000 feet
with no significant weather and/or obstructions to visibility.
 TC=TEMPERATURE CELSIUS

 * =Non NWS site. Station does not report precipitation (e.g. rain,
    snow, etc.), thunder, or fog.

DCZ001-MDZ009-015-VAZ040>042-051-053>054-291900-
WASHINGTON METRO

CITY           SKY/WX    TMP DP  RH WIND       PRES   REMARKS
WASHINGTON NAT PTSUNNY   89  68  49 E5        30.14F HX  93
DULLES         PTSUNNY   90  64  42 VRB5      30.16S HX  91
ANDREWS AFB    MOSUNNY   89  65  45 NE6       30.14F HX  91
FT BELVOIR     MOSUNNY   89  70  54 VRB6      30.14F HX  94
COLLEGE PARK*  MOSUNNY   88  66  48 CALM      30.14S HX  90
LEESBURG*      MOSUNNY   90  70  51 E3        30.18S HX  95
MANASSAS*      SUNNY     90  66  45 CALM      30.15F HX  92
GAITHERSBURG*  SUNNY     88  66  48 NW3       30.20S HX  90

$$

MDZ006>007-011-014-291900-
BALTIMORE METRO

CITY           SKY/WX    TMP DP  RH WIND       PRES   REMARKS
BWI AIRPORT    PTSUNNY   91  66  43 CALM      30.13F HX  93
MD SCIENCE CTR   N/A     90  67  46 MISG      30.13F HX  93
MARTIN STATE   MOSUNNY   88  75  66 SE7       30.14F HX  97
ANNAPOLIS      MOSUNNY   85  73  67 SE8       30.13F HX  91
FORT MEADE*      N/A     86  66  51 CALM      30.16S

$$

MDZ012-015-019>023-291900-
MARYLAND EASTERN SHORE

CITY           SKY/WX    TMP DP  RH WIND       PRES   REMARKS
OCEAN CITY     MOSUNNY   83  70  64 E8        30.13S
SALISBURY      SUNNY     88  66  48 NE7       30.13S HX  90
BAY BRIDGE AP* MOSUNNY   86  70  58 NW5       30.14F HX  90
CAMBRIDGE*     PTSUNNY   84  66  54 CALM      30.13F
EASTON*        MOSUNNY   88  75  66 W7        30.18S HX  97

$$

MDZ017>025-291900-
SOUTHERN MARYLAND

CITY           SKY/WX    TMP DP  RH WIND       PRES   REMARKS
PATUXENT RIVER MOSUNNY   87  63  44 NE7       30.14S
ST INIGOES     SUNNY     89  64  43 VRB3      30.13F HX  90
LEONARDTOWN*   SUNNY     86  63  45 NE3       30.16F

$$

MDZ003>005-291900-
NORTH CENTRAL MARYLAND

CITY           SKY/WX    TMP DP  RH WIND       PRES   REMARKS
FREDERICK*     NOT AVBL
HAGERSTOWN APT MOSUNNY   91  66  43 VRB7      30.17F HX  93

$$

MDZ501>502-291900-
WESTERN MARYLAND

CITY           SKY/WX    TMP DP  RH WIND       PRES   REMARKS
OAKLAND*         N/A     75  63  64 NW5       30.32S
CUMBERLAND*    MOSUNNY   90  63  40 NE5       30.23F HX  90

$$

VAZ025>031-291900-
SHENANDOAH VALLEY

CITY           SKY/WX    TMP DP  RH WIND       PRES   REMARKS
WINCHESTER*    MOSUNNY   88  68  51 N6        30.19S HX  91
FRONT ROYAL*   FAIR      86  68  54 SE5       30.17F
LURAY*         FAIR      88  66  48 NE3       30.19F HX  90
NEW MARKET*    FAIR     N/A N/A N/A N5        30.18F
STAUNTON*      MOSUNNY   87  66  50 E5        30.22F
WAYNESBORO*    MOCLDY    86  67  53 CALM      30.22S

$$

WVZ021-048>050-054>055-291900-
EASTERN WEST VIRGINIA PANHANDLE

CITY           SKY/WX    TMP DP  RH WIND       PRES   REMARKS
MARTINSBURG    PTSUNNY   87  66  49 NW6       30.18S
PETERSBURG*    SUNNY     90  67  46 E6        30.19F HX  92

$$

VAZ036>039-050-291900-
CENTRAL FOOTHILLS

CITY           SKY/WX    TMP DP  RH WIND       PRES   REMARKS
CHARLOTTESVILL MOSUNNY   89  65  44 S5        30.17F HX  91
CULPEPER*      MOSUNNY   88  71  56 N3        30.17S HX  93
ORANGE*          N/A     90  70  51 CALM      30.18F HX  95
GORDONSVILLE*  NOT AVBL
WARRENTON*     FAIR      89  64  42 NE3       30.16S HX  90

$$

VAZ055>057-291900-
NORTH AND CENTRAL PIEDMONT

CITY           SKY/WX    TMP DP  RH WIND       PRES   REMARKS
FREDERICKSBRG*   N/A     89  67  48 E7        30.14F HX  92
STAFFORD*      SUNNY     90  65  43 CALM      30.19F HX  91

$$

NCZ024-NYZ072-PAZ021-071-VAZ022-071-291900-
OTHER REGIONAL OBSERVATIONS

CITY           SKY/WX    TMP DP  RH WIND       PRES   REMARKS
NEW YORK CITY  SUNNY     90  58  33 NW7       30.11F
PHILADELPHIA   PTSUNNY   91  67  44 W10G18    30.11F HX  94
PITTSBURGH     MOSUNNY   84  61  45 VRB5      30.25S
ROANOKE        MOSUNNY   90  66  45 VRB6      30.20F HX  92
RICHMOND       MOSUNNY   89  61  38 N9        30.13F
RALEIGH        CLOUDY    86  61  42 N7        30.14F

$$

ANZ530>537-291900-
MARINE OBSERVATIONS

STATION/POSITION TIME  TEMP    WIND        PRES
                       AIR SEA DIR/SP/G
                 (UTC) (F)     (DEG/KT/KT) (MB)
THOMAS PT LIGHT  1800   81 83  130/  4/  5 1022.0F
BALT KEY BRIDGE  1748   83     120/  6/  8 1020.3F
COVE POINT       1748   81      20/  5/  8 1021.3F
LEWISETTA        1748   81 83   80/  3/  4 1020.3F
SOLOMONS ISLAND  1748   83 84  120/  5/  7   N/A
PINEY POINT      1748          260/  2/  2   N/A

$$





USA.gov is the U.S. government's official web portal to all federal, state and local government web resources and services.